THOR AGENA B DEB, 2092

Orbit data source: Space-Track

THOR AGENA B DEB, 2092 is space debris in LEO originally from a launch on Mon, 29 Nov 1965 UTC launched from the Air Force Western Test Range (AFWTR). Debris objects in space refer to the collection of defunct objects orbiting the Earth. Examples of debris include non-operational satellites, rocket bodies, and fragments generated from explosions, collisions, or faulty payload assembly.

Loading next visibility...
Identifier
2092, 1965-098H
Orbit
LEO
Country
Flag of USUS
Related business
Manufacturer
Unknown
Mission
Spacecraft
Bus & Motor
Unknown
Mass
~1 kg wet, ~1 kg dry
Launch date (UTC)
1965-11-29 (60 years ago)
Launch vehicle
Unknown
Launch site
Air Force Western Test Range (AFWTR)
Object type
Payload
Rocket body
Debris
Shape & HBR
Ann Cyl, 0.1 m
Radar Cross Section
0.031 m², Small (<0.1 m²)

Expand to show TLE details & history
Last TLE update: 15 hours ago

TLE from 15 hours ago
0 THOR AGENA B DEB
1 02092U 65098H   25242.72020867  .00002514  00000-0  82616-3 0  9996
2 02092  79.8587 248.9940 1299328 343.0542  13.0693 12.34383328644575
Epoch: 2025-08-30T17:17Z
TLE epoch observation values (Epoch: 2025-08-30T17:17:06.029Z)
Latitude
-0.00001°
Longitude
10.56842°
Altitude
540.447 km
Speed
8.054 km/s
True Right ascension
16h 35m 58s
True Declination
0° 00' 00"
Sunlit
Object was in daylight at epoch
Visualization orbit readout
Latitude
Unknown
Longitude
Unknown
Altitude
Unknown
Speed
Unknown
Apparent Right ascension
Unknown
Apparent Declination
Unknown
Sunlit
N/A
Visualization observer readout
Local Sidereal Time
00:06:45
Azimuth
Unknown
Elevation
Unknown
Doppler factor
Unknown
Orbital elements
Apogee altitude
2,555.174 km
Perigee altitude
500.662 km
Semi-major axis
7,906.055 km
Eccentricity
0.12993
Inclination
79.8587°
RAAN
248.994°
Arg. of periapsis
343.0542°
True anomaly
17.05988°
Mean anomaly
13.0693°
Eccentric anomaly
14.99555°
Mean motion
3.08747 °/min
Orbital period
116.6 mins
BSTAR
0.00082616
Loading maneuver chart data...
Computing Atmospheric mass density...
Loading historical data...
Loading historical data...
Loading historical data...
Loading historical data...
Loading historical data...
Loading historical data...
Loading historical data...

Documentation

Showing up to 5 results
|